Location: Monrovia
(34.7865°N, 86.7139°W)
Time: 20:59:00
(UTC+00:00)

CZ-4C R/B - Pass Details

Date: 14 July 2020
Orbit: 409 x 491 km, 97.7° (Epoch: 08 August)

Event Time Altitude Azimuth Distance (km) Brightness Sun altitude
Exits shadow 10:09:18 - 212° (SSW) 1,746 5.3 -7.1°
Reaches altitude 10° 10:10:02 10° 221° (SW) 1,516 5.0 -7.0°
Maximum altitude 10:12:15 17° 264° (W) 1,151 4.4 -6.6°
Drops below altitude 10° 10:14:26 10° 307° (NW) 1,502 5.3 -6.2°
Sets 10:16:55 0° 329° (NNW) 2,360 6.6 -5.8°
